Date String (YYYY-MM-DD hh:mm:ss) UTC,Instrument flags,Ambient pressure (hPa),Sample flow (lpm),Bypass flow (lpm),Sample temperature (°C),Ambient temperature (°C),ASC tube jacket temperature (°C),LED temperature (°C),Box temperature (°C),Sample RH (%),Span deviation,Mass concentration (μg/m³),Mass concentration (μg/m³),Mass concentration (μg/m³)
DateTimeUTC,F1_M11,P_M11,Q1_M11,Q2_M11,T1_M11,T2_M11,T3_M11,T4_M11,T5_M11,U1_M11,ZSPAN_M11,X0_M11,X2_M11,X1_M11
2021-11-27 03:00:00,,0825.5,5.01,0.00,29.9,29.0,00.0,38.9,31.6,07.6,0000.0,0001.52,0000.89,0000.50
2021-11-27 03:01:00,,0825.4,5.01,0.00,29.9,29.0,00.0,38.8,31.6,07.5,0000.0,0001.55,0000.90,0000.50
2021-11-27 03:02:00,,0825.4,4.99,0.00,29.8,29.0,00.0,38.9,31.6,07.5,0000.0,0001.62,0000.93,0000.50
2021-11-27 03:03:00,,0825.4,5.02,0.00,29.8,29.0,00.0,38.9,31.5,07.4,0000.0,0001.65,0000.94,0000.51
2021-11-27 03:04:00,,0825.4,4.98,0.00,29.8,29.0,00.0,38.9,31.5,07.4,0000.0,0001.62,0000.95,0000.52
2021-11-27 03:05:00,,0825.4,5.01,0.00,29.8,28.9,00.0,38.8,31.5,07.2,0000.0,0001.56,0000.94,0000.52
2021-11-27 03:06:00,,0825.4,4.98,0.00,29.8,28.9,00.0,38.8,31.5,07.0,0000.0,0001.62,0000.95,0000.52
2021-11-27 03:07:00,,0825.4,5.00,0.00,29.8,28.9,00.0,38.8,31.4,06.8,0000.0,0001.55,0000.93,0000.52
2021-11-27 03:08:00,,0825.4,5.01,0.00,29.7,28.9,00.0,38.8,31.4,06.9,0000.0,0001.49,0000.91,0000.52
2021-11-27 03:09:00,,0825.3,4.98,0.00,29.7,28.9,00.0,38.8,31.4,07.0,0000.0,0001.56,0000.92,0000.53
2021-11-27 03:10:00,,0825.3,5.01,0.00,29.7,28.8,00.0,38.8,31.3,06.6,0000.0,0001.63,0000.94,0000.53
2021-11-27 03:11:00,,0825.3,4.99,0.00,29.7,28.8,00.0,38.8,31.3,06.6,0000.0,0001.75,0000.99,0000.54
2021-11-27 03:12:00,,0825.3,4.99,0.00,29.7,28.8,00.0,38.8,31.3,06.6,0000.0,0001.69,0000.97,0000.54
2021-11-27 03:13:00,,0825.3,5.00,0.00,29.7,28.8,00.0,38.8,31.3,06.6,0000.0,0001.54,0000.91,0000.54
2021-11-27 03:14:00,,0825.4,5.01,0.00,29.7,28.8,00.0,38.8,31.3,06.6,0000.0,0001.61,0000.93,0000.53
2021-11-27 03:15:00,,0825.3,4.99,0.00,29.7,28.8,00.0,38.8,31.3,06.6,0000.0,0001.57,0000.90,0000.53
2021-11-27 03:16:00,,0825.4,5.02,0.00,29.7,28.8,00.0,38.8,31.4,06.6,0000.0,0001.52,0000.89,0000.54
2021-11-27 03:17:00,,0825.4,4.99,0.00,29.7,28.8,00.0,38.8,31.4,06.5,0000.0,0001.44,0000.88,0000.55
2021-11-27 03:18:00,,0825.3,5.01,0.00,29.7,28.9,00.0,38.8,31.4,06.5,0000.0,0001.45,0000.88,0000.56
2021-11-27 03:19:00,,0825.3,4.99,0.00,29.7,28.9,00.0,38.8,31.4,06.6,0000.0,0001.46,0000.88,0000.55
2021-11-27 03:20:00,,0825.3,5.00,0.00,29.7,28.9,00.0,38.8,31.4,06.6,0000.0,0001.48,0000.88,0000.55
2021-11-27 03:21:00,,0825.4,5.00,0.00,29.7,28.8,00.0,38.8,31.4,06.6,0000.0,0001.69,0000.87,0000.55
2021-11-27 03:22:00,,0825.4,5.00,0.00,29.7,28.8,00.0,38.8,31.3,06.6,0000.0,0001.65,0000.84,0000.55
2021-11-27 03:23:00,,0825.3,4.99,0.00,29.7,28.8,00.0,38.7,31.3,06.5,0000.0,0001.61,0000.82,0000.56
2021-11-27 03:24:00,,0825.4,5.01,0.00,29.7,28.8,00.0,38.7,31.3,06.4,0000.0,0001.66,0000.84,0000.56
2021-11-27 03:25:00,,0825.3,5.00,0.00,29.7,28.8,00.0,38.7,31.3,06.4,0000.0,0001.64,0000.83,0000.57
2021-11-27 03:26:00,,0825.4,5.00,0.00,29.7,28.8,00.0,38.7,31.3,06.5,0000.0,0001.69,0000.86,0000.58
2021-11-27 03:27:00,,0825.4,5.00,0.00,29.7,28.8,00.0,38.7,31.3,06.5,0000.0,0001.74,0000.87,0000.58
2021-11-27 03:28:00,,0825.3,4.99,0.00,29.7,28.8,00.0,38.7,31.3,06.4,0000.0,0001.87,0000.89,0000.57
2021-11-27 03:29:00,,0825.4,5.01,0.00,29.7,28.8,00.0,38.7,31.3,06.4,0000.0,0001.99,0000.91,0000.57
2021-11-27 03:30:00,,0825.4,4.99,0.00,29.7,28.8,00.0,38.7,31.3,06.4,0000.0,0002.17,0000.96,0000.57
2021-11-27 03:31:00,,0825.3,5.01,0.00,29.7,28.9,00.0,38.7,31.4,06.5,0000.0,0002.08,0000.94,0000.58
2021-11-27 03:32:00,,0825.4,5.00,0.00,29.7,28.9,00.0,38.7,31.4,06.5,0000.0,0001.80,0000.93,0000.58
2021-11-27 03:33:00,,0825.4,5.00,0.00,29.7,28.9,00.0,38.7,31.4,06.5,0000.0,0001.88,0000.96,0000.57
2021-11-27 03:34:00,,0825.4,4.99,0.00,29.7,28.9,00.0,38.7,31.4,06.5,0000.0,0001.98,0001.00,0000.57
2021-11-27 03:35:00,,0825.4,5.01,0.00,29.7,28.8,00.0,38.7,31.4,06.5,0000.0,0001.96,0000.99,0000.58
2021-11-27 03:36:00,,0825.4,4.99,0.00,29.7,28.8,00.0,38.7,31.4,06.5,0000.0,0002.00,0001.01,0000.58
2021-11-27 03:37:00,,0825.3,5.00,0.00,29.7,28.8,00.0,38.7,31.4,06.5,0000.0,0001.97,0001.00,0000.58
2021-11-27 03:38:00,,0825.4,5.01,0.00,29.7,28.8,00.0,38.7,31.4,06.5,0000.0,0002.01,0001.02,0000.58
2021-11-27 03:39:00,,0825.4,4.99,0.00,29.7,28.8,00.0,38.7,31.4,06.5,0000.0,0001.93,0001.01,0000.58
2021-11-27 03:40:00,,0825.4,5.00,0.00,29.7,28.8,00.0,38.7,31.4,06.6,0000.0,0001.82,0000.98,0000.58
2021-11-27 03:41:00,,0825.5,5.01,0.00,29.7,28.8,00.0,38.7,31.4,06.6,0000.0,0002.84,0000.94,0000.60
2021-11-27 03:42:00,,0825.4,4.99,0.00,29.7,28.8,00.0,38.7,31.4,06.5,0000.0,0003.85,0001.01,0000.60
2021-11-27 03:43:00,,0825.5,5.00,0.00,29.7,28.9,00.0,38.7,31.4,06.5,0000.0,0003.99,0001.06,0000.60
2021-11-27 03:44:00,,0825.5,4.99,0.00,29.7,28.9,00.0,38.7,31.4,06.5,0000.0,0003.91,0001.04,0000.61
2021-11-27 03:45:00,,0825.5,5.00,0.00,29.7,28.9,00.0,38.7,31.4,06.5,0000.0,0003.84,0001.02,0000.62
2021-11-27 03:46:00,,0825.5,5.00,0.00,29.7,28.9,00.0,38.7,31.4,06.5,0000.0,0004.03,0001.06,0000.62
2021-11-27 03:47:00,,0825.5,5.00,0.00,29.7,28.9,00.0,38.7,31.5,06.5,0000.0,0004.06,0001.07,0000.63
2021-11-27 03:48:00,,0825.5,5.01,0.00,29.8,28.9,00.0,38.7,31.5,06.5,0000.0,0004.20,0001.11,0000.63
2021-11-27 03:49:00,,0825.5,4.98,0.00,29.8,28.9,00.0,38.7,31.5,06.5,0000.0,0004.25,0001.13,0000.63
2021-11-27 03:50:00,,0825.5,5.01,0.00,29.8,28.9,00.0,38.7,31.5,06.5,0000.0,0004.22,0001.12,0000.64
2021-11-27 03:51:00,,0825.4,4.99,0.00,29.8,28.9,00.0,38.7,31.5,06.4,0000.0,0004.25,0001.14,0000.64
2021-11-27 03:52:00,,0825.4,5.00,0.00,29.8,28.9,00.0,38.8,31.5,06.4,0000.0,0003.36,0001.16,0000.63
2021-11-27 03:53:00,,0825.5,5.00,0.00,29.8,28.9,00.0,38.8,31.5,06.4,0000.0,0002.33,0001.14,0000.63
2021-11-27 03:54:00,,0825.6,5.01,0.00,29.8,28.9,00.0,38.8,31.5,06.4,0000.0,0002.19,0001.10,0000.63
2021-11-27 03:55:00,,0825.6,5.01,0.00,29.8,28.9,00.0,38.8,31.5,06.5,0000.0,0002.17,0001.10,0000.63
2021-11-27 03:56:00,,0825.6,4.99,0.00,29.8,28.9,00.0,38.8,31.5,06.5,0000.0,0002.15,0001.09,0000.62
2021-11-27 03:57:00,,0825.6,5.00,0.00,29.8,28.9,00.0,38.8,31.5,06.5,0000.0,0002.02,0001.07,0000.62
2021-11-27 03:58:00,,0825.6,5.01,0.00,29.8,28.9,00.0,38.8,31.5,06.5,0000.0,0002.01,0001.07,0000.61
2021-11-27 03:59:00,,0825.7,5.01,0.00,29.8,28.9,00.0,38.8,31.5,06.4,0000.0,0001.88,0001.04,0000.61
